Location: Tarrant
(32.8168°N, 97.0772°W)
Time: 21:45:50
(UTC+00:00)

COSMOS 2455 - Visible Passes

Search period start: 30 March 2023 00:00
Search period end: 09 April 2023 00:00
Orbit: 898 x 911 km, 67.1° (Epoch: 30 March)

Date Brightness Start Highest point End Pass type
(mag) Time Alt. Az. Time Alt. Az. Time Alt. Az.
30 Mar 3.4 09:47:50 48° SE 09:48:28 50° ESE 09:54:15 10° NE visible
30 Mar 4.1 11:31:01 14° W 11:34:37 23° NW 11:39:16 10° N visible
31 Mar 2.9 09:52:13 71° ESE 09:52:20 71° ESE 09:58:20 10° NNE visible
31 Mar 4.5 11:35:23 11° W 11:38:48 17° NW 11:42:33 10° NNW visible
01 Apr 2.7 09:56:31 80° NNW 09:56:31 80° NNW 10:02:19 10° NNE visible
01 Apr 4.7 11:40:46 10° WNW 11:43:03 12° NW 11:45:20 10° NNW visible
02 Apr 5.4 08:17:33 13° ENE 08:17:33 13° ENE 08:18:33 10° ENE visible
02 Apr 3.0 10:00:43 57° NW 10:00:43 57° NW 10:06:11 10° NNE visible
03 Apr 5.2 08:21:41 17° ENE 08:21:41 17° ENE 08:23:22 10° NE visible
03 Apr 3.4 10:04:50 41° NW 10:04:50 41° NW 10:09:57 10° N visible
04 Apr 5.0 08:25:45 20° ENE 08:25:45 20° ENE 08:27:48 10° NE visible
04 Apr 3.9 10:08:54 30° NW 10:08:54 30° NW 10:13:36 10° N visible
05 Apr 4.9 08:29:46 23° NE 08:29:46 23° NE 08:32:03 10° NE visible
05 Apr 4.2 10:12:54 23° NW 10:12:54 23° NW 10:17:07 10° N visible
06 Apr 4.7 08:33:43 25° NE 08:33:43 25° NE 08:36:09 10° NNE visible
06 Apr 4.6 10:16:52 17° NW 10:16:52 17° NW 10:20:25 10° N visible
07 Apr 4.6 08:37:38 26° NNE 08:37:38 26° NNE 08:40:08 10° NNE visible
07 Apr 4.9 10:20:46 12° NW 10:20:51 12° NW 10:23:15 10° NNW visible
08 Apr 4.6 08:41:30 25° N 08:41:30 25° N 08:44:00 10° NNE visible
